Weather History for Baton Rouge, LA

Change the Weather History Date:

Monday, July 2, 2012

  Actual Average Record
Temperature  
Mean Temperature 86 °F 83 °F  
Max Temperature 96 °F 92 °F 102 °F (2009)
Min Temperature 75 °F 73 °F 62 °F (1924)
Degree Days  
Heating Degree Days 0 0  
Month to date heating degree days 0 0  
Since 1 June heating degree days 0 0  
Since 1 July heating degree days 0 0  
Cooling Degree Days 21 18  
Month to date cooling degree days 42 36  
Year to date cooling degree days 1315 1085  
Since 1 June cooling degree days 502 520  
Growing Degree Days 35 (Base 50)    
Moisture  
Dew Point 72 °F    
Average Humidity 69    
Maximum Humidity 88    
Minimum Humidity 49    
Precipitation  
Precipitation 0.01 in 0.19 in 2.72 in (1966)
Month to date precipitation 0.01 0.37  
Year to date precipitation 31.28 31.30  
Snow  
Snow 0.00 in - - ()
Month to date snowfall 0.0  
Since 1 June snowfall 0.0  
Since 1 July snowfall 0.0  
Snow Depth 0.00 in    
Sea Level Pressure  
Sea Level Pressure 30.06 in    
Wind  
Wind Speed 3 mph (WNW)    
Max Wind Speed 21 mph    
Max Gust Speed 31 mph    
Visibility 10 miles    
Events Rain , Thunderstorm    
T = Trace of Precipitation, MM = Missing Value Source: NWS Daily Summary

Daily Weather History Graph

Daily Weather History Graph

Search for Another Location

Airport:

Trip Planner

Search our weather history database for the weather conditions in past years. The results will help you decide how hot, cold, wet, or windy it might be!

Date:

Astronomy

Jul. 02, 2012 Rise Set
Actual Time 6:06 AM CDT 8:10 PM CDT
Civil Twilight 5:38 AM CDT 8:38 PM CDT
Nautical Twilight 5:05 AM CDT 9:11 PM CDT
Astronomical Twilight 4:29 AM CDT 9:47 PM CDT
Moon 7:16 PM CDT 4:52 AM CDT
Length of Visible Light 14h 59m
Length of Day
14h 04m
Waxing Gibbous, 98% of the Moon is Illuminated
Jul 2
Waxing Gibbous
Jul 3
Full
Jul 10
Last Quarter
Jul 18
New
Jul 26
First Quarter

Hourly Weather History & Observations

Time (CDT) Temp. Heat Index Dew Point Humidity Pressure Visibility Wind Dir Wind Speed Gust Speed Precip Events Conditions
12:53 AM 80.1 °F 83.8 °F 72.0 °F 76% 30.04 in 10.0 mi WSW 4.6 mph - N/A   Clear
1:53 AM 80.1 °F 84.2 °F 73.0 °F 79% 30.04 in 10.0 mi SW 5.8 mph - N/A   Clear
2:53 AM 79.0 °F - 72.0 °F 79% 30.04 in 10.0 mi WSW 3.5 mph - N/A   Clear
3:53 AM 78.1 °F - 72.0 °F 81% 30.04 in 10.0 mi Calm Calm - N/A   Clear
4:53 AM 75.9 °F - 72.0 °F 87% 30.05 in 10.0 mi WSW 3.5 mph - N/A   Clear
5:53 AM 75.0 °F - 72.0 °F 90% 30.08 in 10.0 mi West 3.5 mph - N/A   Clear
6:53 AM 77.0 °F - 72.0 °F 84% 30.09 in 10.0 mi WNW 3.5 mph - N/A   Clear
7:53 AM 80.1 °F 83.8 °F 72.0 °F 76% 30.11 in 10.0 mi WNW 4.6 mph - N/A   Clear
8:53 AM 84.0 °F 90.2 °F 73.0 °F 69% 30.13 in 10.0 mi NW 4.6 mph - N/A   Clear
9:53 AM 87.1 °F 92.8 °F 71.1 °F 59% 30.13 in 10.0 mi Calm Calm - N/A   Clear
10:53 AM 90.0 °F 96.4 °F 71.1 °F 54% 30.13 in 10.0 mi North 3.5 mph - N/A   Clear
11:53 AM 91.9 °F 97.4 °F 70.0 °F 48% 30.11 in 10.0 mi North 3.5 mph - N/A   Clear
12:53 PM 93.0 °F 100.1 °F 71.1 °F 49% 30.09 in 10.0 mi Calm Calm - N/A   Scattered Clouds
1:53 PM 93.0 °F 101.9 °F 73.0 °F 52% 30.07 in 10.0 mi West 6.9 mph - N/A   Scattered Clouds
2:53 PM 95.0 °F 104.5 °F 73.0 °F 49% 30.06 in 10.0 mi WSW 8.1 mph - N/A   Scattered Clouds
3:53 PM 80.1 °F 82.3 °F 66.9 °F 64% 30.06 in 10.0 mi NNE 15.0 mph 31.1 mph N/A Rain , Thunderstorm Heavy Thunderstorms and Rain
4:45 PM 84.2 °F 90.9 °F 73.4 °F 70% 30.03 in 10.0 mi East 4.6 mph - 0.01 in   Mostly Cloudy
4:53 PM 84.0 °F 91.2 °F 73.9 °F 72% 30.03 in 10.0 mi Calm Calm - 0.01 in   Mostly Cloudy
5:53 PM 82.9 °F 88.8 °F 73.0 °F 72% 30.02 in 10.0 mi East 4.6 mph - N/A   Clear
6:53 PM 82.0 °F 87.9 °F 73.9 °F 76% 30.04 in 10.0 mi Calm Calm - N/A   Partly Cloudy
7:53 PM 81.0 °F 86.2 °F 73.9 °F 79% 30.03 in 10.0 mi Calm Calm - N/A   Clear
8:53 PM 80.1 °F 83.8 °F 72.0 °F 76% 30.02 in 10.0 mi Calm Calm - N/A   Clear
9:53 PM 79.0 °F - 73.9 °F 84% 30.03 in 10.0 mi Calm Calm - N/A   Clear
10:53 PM 78.1 °F - 73.0 °F 84% 30.04 in 10.0 mi Calm Calm - N/A   Clear
11:53 PM 77.0 °F - 73.9 °F 90% 30.04 in 10.0 mi Calm Calm - N/A   Clear